Location: Tel Aviv
(32.0670°N, 34.7670°E)
Time: 13:19:28
(UTC+02:00)

Envisat - Pass Details

Date: 05 December 2021
Orbit: 764 x 766 km, 98.2° (Epoch: 20 January)

Event Time Altitude Azimuth Distance (km) Brightness Sun altitude
Rises 03:38:47 0° 30° (NNE) 3,234 6.5 -34.9°
Reaches altitude 10° 03:41:36 10° 45° (NE) 2,303 5.8 -34.3°
Maximum altitude 03:45:28 22° 95° (E) 1,627 5.3 -33.5°
Drops below altitude 10° 03:49:20 10° 146° (SE) 2,292 5.9 -32.7°
Sets 03:52:07 0° 161° (SSE) 3,213 6.6 -32.1°
